[[{"header":{"parameterUnit":"m.s-1","parameterCategory":1,"la1":30.2991,"la2":30.254,"lo1":-89.0895,"lo2":-89.0444,"dy":0.0017,"dx":0.0017,"nx":28,"ny":28,"refTime":"2024-06-27T09:00:00:Z","depth":0,"parameterNumber":2,"parameterNumberName":"U-component_of_WINDS"},"data":[0,0,0,0,0,0,0,0,0,0,0,0,0,0,0,0,0,0,0,0,0,0,0,0,0,0,0,0,0,0,0,0,0,0,0,0,0,0,0,0,0,0,0,0,0,0,0,0,0,0,0,0,0,0,0,0,0,0,2.5722,2.5723,0,2.5852,2.5854,2.5855,2.5891,2.589,2.589,2.5889,2.6024,2.6028,2.6032,0,0,0,0,0,0,0,0,0,0,0,0,0,2.5505,2.5509,2.5721,2.5723,2.5725,2.5852,2.5854,2.5855,2.5891,2.589,2.5889,2.5888,2.6023,2.6028,2.6033,0,0,0,0,0,0,0,0,0,0,0,0,0,2.5614,2.551,2.5721,2.5758,2.5762,2.5851,2.5854,2.5856,2.5891,2.589,2.5889,2.5888,2.6021,2.6027,2.6033,2.6096,0,0,2.6053,2.6056,0,0,0,0,0,0,0,0,2.5607,2.5621,2.5751,2.5755,2.5761,2.5854,2.5827,2.5936,2.5892,2.5842,2.5889,2.5888,2.5968,2.5979,2.6006,2.6102,2.6108,2.6054,2.6058,2.606,2.6062,0,0,0,0,0,0,0,2.56,2.5616,2.5773,2.5753,2.5759,2.5768,2.5783,2.5848,2.591,2.5847,2.585,2.5864,2.5971,2.6,2.601,2.611,2.6054,2.6059,2.6063,2.6066,2.6265,2.6266,0,0,0,0,0,0,2.5586,2.561,2.5769,2.5777,2.568,2.5773,2.5789,2.5825,2.591,2.5921,2.5865,2.5866,2.5989,2.6002,2.6014,2.6094,2.606,2.6066,2.607,2.6263,2.6265,2.6266,0,0,0,0,0,0,2.5581,2.56,2.5764,2.5694,2.5716,2.5778,2.5819,2.5828,2.5857,2.5924,2.5935,2.5883,2.5989,2.6005,2.6075,2.6099,2.6069,2.6075,2.6261,2.6264,2.6266,2.6252,0,0,0,0,0,0,2.5575,2.5598,2.5621,2.5694,2.5719,2.5822,2.582,2.5832,2.5868,2.587,2.5944,2.5955,2.5989,2.6066,2.6082,2.6107,2.608,2.626,2.6262,2.6265,2.625,2.6253,2.6255,0,0,0,0,0,2.5567,2.5612,2.5622,2.5642,2.575,2.5823,2.5838,2.5876,2.587,2.5895,2.5938,2.5952,2.6093,2.6072,2.6091,2.6119,2.6258,2.6262,2.6265,2.6249,2.6253,2.6255,0,0,0,0,0,0,2.5541,2.5623,2.5635,2.5705,2.5757,2.5829,2.5862,2.5878,2.5933,2.5932,2.5979,2.5995,2.6062,2.6097,2.6072,2.6184,2.6176,2.6183,2.6158,2.6162,2.6164,2.6155,2.6086,0,0,0,0,0,2.5543,2.5595,2.5664,2.572,2.5745,2.5799,2.5832,2.5857,2.5913,2.5935,2.5983,2.6036,2.6093,2.6129,2.6185,2.6256,2.6273,2.6284,2.6286,2.6288,2.6294,2.6334,2.634,2.6277,2.6277,2.6277,0,0,2.5549,2.56,2.563,2.5716,2.5759,2.5812,2.5817,2.5873,2.5913,2.5944,2.6013,2.605,2.6113,2.6183,2.6217,2.6215,2.6315,2.6292,2.6293,2.6298,2.6338,2.6344,2.635,2.6279,2.6279,2.6278,0,0,2.5587,2.563,2.5682,2.5725,2.579,2.5826,2.5838,2.5908,2.5933,2.6003,2.6028,2.6076,2.6173,2.6217,2.6252,2.6307,2.6323,2.6324,2.6337,2.6376,2.6381,2.6386,2.6406,2.6413,2.6329,2.6329,2.6329,0,2.5586,2.5667,2.5706,2.5761,2.5799,2.5829,2.5882,2.5922,2.6002,2.6027,2.6024,2.6145,2.619,2.6272,2.6285,2.6312,2.6329,2.6316,2.6377,2.6382,2.6387,2.6407,2.6415,2.6329,2.6329,2.6329,2.6329,0,2.5663,2.5718,2.5752,2.5828,2.587,2.5923,2.5972,2.6009,2.6031,2.6067,2.6138,2.6193,2.626,2.6281,2.6303,2.6367,2.6363,2.6368,2.6362,2.6392,2.6412,2.642,2.6329,2.6329,2.6329,2.6329,0,0,2.5687,2.5785,2.5797,2.5833,2.5907,2.5951,2.6006,2.6072,2.6103,2.6158,2.6206,2.6287,2.6291,2.6331,2.6359,2.6393,2.6434,2.6393,2.6396,2.6399,2.6508,2.6504,2.6512,2.6445,2.6446,2.6447,2.6502,0,2.5735,2.5834,2.5872,2.5954,2.6006,2.6036,2.6084,2.6135,2.6171,2.6221,2.626,2.6317,2.6319,2.6343,2.6378,2.6421,2.6456,2.6418,2.649,2.6492,2.6474,2.6522,2.6518,2.6567,2.651,2.6511,2.6512,0,2.5803,2.5858,2.5945,2.6014,2.6037,2.608,2.6144,2.6191,2.625,2.6273,2.6317,2.6343,2.6402,2.6392,2.6475,2.6448,2.648,2.6506,2.6509,2.6517,2.6504,2.6532,2.6584,2.6591,2.6525,2.6524,2.6523,0,2.5813,2.5909,2.5974,2.6003,2.6084,2.6114,2.6149,2.6207,2.6244,2.63,2.6325,2.6387,2.6421,2.6469,2.651,2.6499,2.659,2.6583,2.6612,2.6611,2.663,2.6628,2.6688,2.665,2.665,2.6649,2.6649,0,2.5863,2.5915,2.5979,2.6019,2.6079,2.6122,2.618,2.6217,2.6268,2.6316,2.6346,2.639,2.6442,2.6493,2.6526,2.6591,2.6606,2.6627,2.6635,2.6624,2.6622,2.6646,2.6644,2.6651,2.6651,2.6651,2.665,0,2.5884,2.5929,2.6002,2.6073,2.6092,2.6133,2.6194,2.6234,2.6271,2.6331,2.6348,2.6406,2.6468,2.6514,2.6594,2.6616,2.6685,2.6693,2.6665,2.6669,2.6696,2.6693,2.6773,2.6786,2.6739,2.6739,2.674,0,2.5912,2.5953,2.6029,2.6063,2.6098,2.6153,2.6191,2.6236,2.6274,2.6345,2.6376,2.644,2.6494,2.6592,2.6641,2.6703,2.6713,2.6737,2.6723,2.6711,2.6714,2.6711,2.6716,2.6739,2.674,2.674,2.674,0,2.5958,2.5979,2.6033,2.6095,2.614,2.6191,2.6243,2.6269,2.6323,2.6365,2.6429,2.647,2.6552,2.6616,2.6682,2.6719,2.6739,2.6744,2.6754,2.6744,2.6726,2.6737,2.6671,2.6742,2.6742,2.6742,2.6742,2.6742,2.5985,2.6023,2.6082,2.6141,2.6185,2.6233,2.6274,2.6316,2.637,2.644,2.6463,2.6529,2.6587,2.6679,2.6717,2.6769,2.6769,2.6783,2.6787,2.679,2.679,2.6717,2.6782,2.6782,2.6782,2.6782,2.6782,0,2.6032,2.6072,2.6126,2.6198,2.6245,2.6259,2.6317,2.6355,2.6413,2.6466,2.6518,2.6591,2.6653,2.6707,2.6772,2.6803,2.6814,2.6819,2.6817,2.6825,2.6786,2.6771,2.6809,2.6809,2.6809,2.6809,2.6809,2.6809,2.6063,2.6128,2.6156,2.6243,2.6283,2.6347,2.6379,2.6424,2.6466,2.6547,2.6598,2.6633,2.6687,2.6756,2.6813,2.6828,2.685,2.6853,2.6869,2.6832,2.6828,2.6825,2.6811,2.6857,2.6857,2.6905,2.6905,2.6906]},{"header":{"parameterUnit":"m.s-1","parameterCategory":1,"la1":30.2991,"la2":30.254,"lo1":-89.0895,"lo2":-89.0444,"dy":0.0017,"dx":0.0017,"nx":28,"ny":28,"refTime":"2024-06-27T09:00:00:Z","depth":0,"parameterNumber":3,"parameterNumberName":"V-component_of_WINDS"},"data":[0,0,0,0,0,0,0,0,0,0,0,0,0,0,0,0,0,0,0,0,0,0,0,0,0,0,0,0,0,0,0,0,0,0,0,0,0,0,0,0,0,0,0,0,0,0,0,0,0,0,0,0,0,0,0,0,0,0,5.3569,5.357,0,5.3662,5.3663,5.3664,5.3677,5.3677,5.3676,5.3675,5.3764,5.3767,5.377,0,0,0,0,0,0,0,0,0,0,0,0,0,5.3397,5.34,5.3569,5.357,5.3571,5.3662,5.3663,5.3664,5.3678,5.3677,5.3676,5.3675,5.3763,5.3766,5.377,0,0,0,0,0,0,0,0,0,0,0,0,0,5.3479,5.3401,5.3568,5.3589,5.3592,5.3661,5.3663,5.3665,5.3678,5.3677,5.3675,5.3674,5.3761,5.3766,5.3771,5.3825,0,0,5.3785,5.3787,0,0,0,0,0,0,0,0,5.3474,5.3485,5.3585,5.3588,5.3591,5.3657,5.3635,5.3718,5.3678,5.3645,5.3675,5.3674,5.3729,5.3736,5.3756,5.3829,5.3833,5.3785,5.3788,5.379,5.3792,0,0,0,0,0,0,0,5.3468,5.3481,5.3605,5.3586,5.359,5.3591,5.3602,5.3651,5.3692,5.3648,5.3649,5.366,5.373,5.3751,5.3758,5.3834,5.3785,5.3789,5.3792,5.3794,5.3956,5.3957,0,0,0,0,0,0,5.346,5.3476,5.3602,5.3608,5.3528,5.3596,5.3607,5.3637,5.3692,5.3699,5.3661,5.366,5.3744,5.3753,5.3761,5.3828,5.379,5.3795,5.3797,5.3954,5.3956,5.3957,0,0,0,0,0,0,5.3456,5.3471,5.3599,5.3543,5.3559,5.36,5.3633,5.3639,5.3661,5.3702,5.3709,5.3676,5.3743,5.3755,5.3809,5.3832,5.3797,5.3801,5.3952,5.3955,5.3957,5.3963,0,0,0,0,0,0,5.3451,5.347,5.3492,5.3543,5.3562,5.3647,5.3635,5.3642,5.367,5.367,5.3718,5.3724,5.3743,5.3802,5.3814,5.3837,5.3805,5.395,5.3953,5.3956,5.3961,5.3965,5.3968,0,0,0,0,0,5.3445,5.3488,5.3493,5.3508,5.3591,5.3648,5.3659,5.3681,5.3671,5.3693,5.372,5.3723,5.3827,5.3808,5.3821,5.3846,5.3949,5.3953,5.3956,5.3959,5.3964,5.3968,0,0,0,0,0,0,5.3436,5.3495,5.3501,5.3563,5.3601,5.365,5.3679,5.3686,5.3726,5.3724,5.3748,5.3759,5.3812,5.3835,5.3812,5.3901,5.3887,5.3893,5.3885,5.389,5.3894,5.3887,5.3809,0,0,0,0,0,5.3441,5.3485,5.3534,5.3583,5.3602,5.3637,5.3663,5.3677,5.3717,5.3732,5.3763,5.3799,5.384,5.3866,5.3906,5.3964,5.3974,5.3988,5.3992,5.3995,5.4,5.4032,5.4038,5.3968,5.3968,5.3968,0,0,5.3452,5.349,5.3516,5.3582,5.3613,5.3656,5.365,5.3696,5.3727,5.3738,5.3792,5.3816,5.3858,5.3915,5.3941,5.3935,5.4021,5.3999,5.4001,5.4004,5.4036,5.4042,5.4048,5.397,5.397,5.397,0,0,5.3495,5.3528,5.3574,5.3605,5.3654,5.3677,5.3687,5.3737,5.3754,5.3809,5.3818,5.3855,5.3925,5.3955,5.3979,5.4034,5.4038,5.4046,5.4066,5.4097,5.4103,5.4108,5.4127,5.4134,5.4051,5.4051,5.4051,0,5.3502,5.3569,5.3595,5.3641,5.3669,5.3684,5.3729,5.3758,5.3816,5.3834,5.3827,5.3917,5.3946,5.401,5.4023,5.4042,5.4054,5.4041,5.41,5.4105,5.411,5.4129,5.4136,5.4052,5.4051,5.4051,5.4051,0,5.3575,5.3621,5.3652,5.371,5.3742,5.3787,5.3818,5.3847,5.3859,5.3883,5.3938,5.3974,5.4022,5.4038,5.4049,5.4104,5.4099,5.4096,5.4082,5.4117,5.4135,5.4143,5.4053,5.4052,5.4052,5.4052,0,0,5.3613,5.3687,5.3697,5.3724,5.3779,5.3814,5.3859,5.3909,5.3933,5.3972,5.401,5.407,5.4068,5.4095,5.411,5.4137,5.4178,5.4131,5.4132,5.4138,5.424,5.4242,5.425,5.4182,5.4183,5.4184,5.4237,0,5.3661,5.3745,5.3771,5.384,5.3883,5.3898,5.3937,5.3974,5.3997,5.4035,5.406,5.4102,5.4096,5.4113,5.4141,5.4167,5.4199,5.4164,5.4216,5.4217,5.4205,5.426,5.4262,5.431,5.4244,5.4245,5.4246,0,5.3729,5.3773,5.3847,5.3897,5.3916,5.3951,5.3999,5.4035,5.4077,5.4092,5.4124,5.4136,5.4182,5.4167,5.423,5.4206,5.4228,5.4244,5.4247,5.4252,5.4234,5.4266,5.4325,5.4332,5.4257,5.4256,5.4256,0,5.3749,5.3826,5.3881,5.3903,5.3963,5.3987,5.4013,5.4054,5.4082,5.4123,5.4141,5.4186,5.421,5.4244,5.4267,5.4254,5.4329,5.4315,5.4341,5.4341,5.4356,5.4355,5.4419,5.4371,5.4371,5.4371,5.437,0,5.38,5.3845,5.3891,5.3924,5.3975,5.4003,5.4051,5.4077,5.4114,5.4151,5.4166,5.4201,5.423,5.4268,5.4287,5.4337,5.4347,5.436,5.4364,5.4358,5.4357,5.4373,5.437,5.4372,5.4372,5.4372,5.4371,0,5.3831,5.3864,5.3924,5.3977,5.3991,5.4026,5.407,5.4102,5.4127,5.4174,5.4187,5.4224,5.427,5.4298,5.4354,5.4367,5.4422,5.4425,5.4409,5.4411,5.4436,5.4433,5.4513,5.4525,5.4468,5.4469,5.4469,0,5.3861,5.3897,5.3954,5.3982,5.4008,5.4052,5.4082,5.4111,5.4141,5.4192,5.4217,5.4265,5.4304,5.4376,5.4407,5.4451,5.4455,5.448,5.4461,5.4455,5.4455,5.4453,5.4457,5.4483,5.4483,5.4484,5.4484,0,5.3912,5.3927,5.397,5.402,5.4056,5.4095,5.4134,5.4155,5.419,5.4223,5.4272,5.4302,5.4362,5.4409,5.4455,5.448,5.4488,5.449,5.4499,5.4493,5.4482,5.4489,5.4417,5.4488,5.4487,5.4487,5.4487,5.4487,5.3943,5.3976,5.4022,5.407,5.4103,5.414,5.4173,5.4203,5.4245,5.4297,5.4311,5.4362,5.4402,5.4467,5.4492,5.4531,5.4527,5.4539,5.4542,5.4545,5.4546,5.4477,5.4539,5.4539,5.4539,5.4539,5.4539,0,5.3995,5.4025,5.407,5.4126,5.4163,5.417,5.4214,5.4244,5.429,5.4328,5.4368,5.4423,5.4469,5.4504,5.455,5.4575,5.458,5.4586,5.4584,5.459,5.4546,5.4535,5.4581,5.4581,5.4581,5.4581,5.4581,5.4581,5.4026,5.4081,5.4102,5.4173,5.4203,5.4255,5.428,5.4313,5.4344,5.4407,5.4446,5.447,5.4507,5.4556,5.4598,5.4607,5.4623,5.4629,5.4638,5.4597,5.4593,5.4588,5.4577,5.4632,5.4632,5.4679,5.4679,5.4679]}]]